Find STARLINK-36794

NORAD ID: 70588 Constellation: starlink operational
LEOCIRCULAR

实时位置

正在加载3D地球...

关于 STARLINK-36794

正在加载描述...

即将过境

Passes for default location (London). Set your location on the main map for personalized predictions.

高度历史

Loading altitude history...

两行轨道根数

1 70588C 26099E 26122.89006944 -.00528630 00000+0 -65625-3 0 1227
2 70588 53.1634 22.5603 0004607 288.9657 182.3598 16.07285273 10
Epoch: May 2, 2026 • Age: 31 hours